Powrót do katalogu

CZ-6A DEB

AktywnyPO
NORAD 54393·DEBRIS·🇨🇳 China

Wystrzelony Nov 11, 2022 z Taiyuan Satellite Launch Center

Loading…

Następne Przeloty (najbliższe 24 godziny)

TLE

ŚwieżeSource: Space-Track

Epoka: Sep 14, 2026, 06:57 UTC

1 54393U 22151DR  26257.28980521  .00000261  00000-0  29244-3 0  9995
2 54393  98.4967 100.7644 0315308  33.9312 328.1569 13.58717938190097

Śledź CZ-6A DEB w czasie rzeczywistym z AllMySat

Download on the App Store